Manchester, NH

10:42 PM EDT on June 28, 2017 (GMT -0400)
Manchester

Weather History for KMHT - July, 2014

Change the Weather History Date:

Tuesday, July 29, 2014

  Actual Average Record
Temperature  
Mean Temperature 70 °F 73 °F  
Max Temperature 77 °F 83 °F 95 °F (1949)
Min Temperature 62 °F 63 °F 47 °F (1953)
Degree Days  
Heating Degree Days 0 0  
Month to date heating degree days 0  
Since 1 June heating degree days 58  
Since 1 July heating degree days 0  
Cooling Degree Days 4 8  
Month to date cooling degree days 224  
Year to date cooling degree days 374  
Since 1 June cooling degree days 344  
Growing Degree Days 20 (Base 50)    
Moisture  
Dew Point 55 °F    
Average Humidity 63    
Maximum Humidity 87    
Minimum Humidity 39    
Precipitation  
Precipitation 0.00 in 0.14 in 1.08 in (1969)
Month to date precipitation 3.52  
Year to date precipitation 25.35  
Snow  
Snow 0.00 in - - ()
Month to date snowfall  
Since 1 July snowfall  
Snow Depth -    
Sea Level Pressure  
Sea Level Pressure 29.78 in    
Wind  
Wind Speed 6 mph (WNW)    
Max Wind Speed 14 mph    
Max Gust Speed 22 mph    
Visibility 10 miles    
Events      
T = Trace of Precipitation, MM = Missing Value Source: NWS Daily Summary

Daily Weather History Graph

Daily Weather History Graph

Search for Another Location

Airport or City:

Trip Planner

Search our weather history database for the weather conditions in past years. The results will help you decide how hot, cold, wet, or windy it might be!

Date:

Astronomy

Jul. 29, 2014 Rise Set
Actual Time 5:33 AM EDT 8:10 PM EDT
Civil Twilight 5:01 AM EDT 8:42 PM EDT
Nautical Twilight 4:20 AM EDT 9:23 PM EDT
Astronomical Twilight 3:33 AM EDT 10:09 PM EDT
Moon 8:12 AM EDT 9:15 PM EDT
Length of Visible Light 15h 41m
Length of Day
14h 36m
Waxing Crescent, 7% of the Moon is Illuminated
Jul 29
Waxing Crescent
Aug 3
First Quarter
Aug 10
Full
Aug 17
Last Quarter
Aug 25
New

Hourly Weather History & Observations

Time (EDT) Temp. Dew Point Humidity Pressure Visibility Wind Dir Wind Speed Gust Speed Precip Events Conditions
12:53 AM 66.0 °F 62.1 °F 87% 29.57 in 10.0 mi NW 4.6 mph - N/A   Mostly Cloudy
1:23 AM 64.9 °F 60.1 °F 84% 29.56 in 10.0 mi WNW 6.9 mph - N/A   Mostly Cloudy
1:53 AM 64.9 °F 59.0 °F 81% 29.60 in 10.0 mi WNW 5.8 mph - N/A   Mostly Cloudy
2:53 AM 64.0 °F 59.0 °F 84% 29.62 in 10.0 mi WSW 3.5 mph - N/A   Mostly Cloudy
3:53 AM 63.0 °F 57.9 °F 84% 29.65 in 10.0 mi WSW 5.8 mph - N/A   Scattered Clouds
4:53 AM 62.1 °F 57.0 °F 84% 29.68 in 10.0 mi West 8.1 mph - N/A   Scattered Clouds
5:31 AM 62.1 °F 55.9 °F 80% 29.67 in 10.0 mi West 3.5 mph - N/A   Mostly Cloudy
5:53 AM 62.1 °F 55.9 °F 80% 29.72 in 10.0 mi West 3.5 mph - N/A   Mostly Cloudy
6:36 AM 62.1 °F 55.0 °F 78% 29.70 in 10.0 mi Variable 6.9 mph - N/A   Mostly Cloudy
6:53 AM 63.0 °F 54.0 °F 72% 29.74 in 10.0 mi WNW 8.1 mph - N/A   Scattered Clouds
7:53 AM 64.9 °F 54.0 °F 68% 29.77 in 10.0 mi WNW 10.4 mph - N/A   Scattered Clouds
8:53 AM 66.0 °F 53.1 °F 63% 29.78 in 10.0 mi WNW 11.5 mph 21.9 mph N/A   Mostly Cloudy
9:53 AM 68.0 °F 51.8 °F 56% 29.76 in 10.0 mi NW 13.8 mph - N/A   Partly Cloudy
10:53 AM 71.1 °F 52.0 °F 51% 29.81 in 10.0 mi WNW 8.1 mph - N/A   Partly Cloudy
11:53 AM 73.0 °F 52.0 °F 48% 29.82 in 10.0 mi West 9.2 mph - N/A   Scattered Clouds
12:53 PM 73.0 °F 52.0 °F 48% 29.82 in 10.0 mi WNW 8.1 mph - N/A   Scattered Clouds
1:53 PM 73.9 °F 52.0 °F 46% 29.83 in 10.0 mi WNW 10.4 mph - N/A   Mostly Cloudy
2:53 PM 75.9 °F 52.0 °F 43% 29.84 in 10.0 mi NW 12.7 mph 16.1 mph N/A   Mostly Cloudy
3:53 PM 77.0 °F 50.0 °F 39% 29.83 in 10.0 mi West 8.1 mph - N/A   Mostly Cloudy
4:53 PM 75.0 °F 50.0 °F 41% 29.88 in 10.0 mi WNW 6.9 mph - N/A   Scattered Clouds
5:53 PM 75.2 °F 50.0 °F 41% 29.86 in 10.0 mi Variable 5.8 mph - N/A   Scattered Clouds
6:53 PM 73.9 °F 51.1 °F 45% 29.91 in 10.0 mi West 5.8 mph - N/A   Mostly Cloudy
7:53 PM 73.0 °F 52.0 °F 48% 29.93 in 10.0 mi NNW 5.8 mph - N/A   Scattered Clouds
8:53 PM 71.1 °F 53.1 °F 53% 29.94 in 10.0 mi Calm Calm - N/A   Mostly Cloudy
9:53 PM 69.1 °F 55.9 °F 63% 29.95 in 10.0 mi Calm Calm - N/A   Overcast
10:53 PM 68.0 °F 57.9 °F 70% 29.96 in 10.0 mi NNW 3.5 mph - N/A   Overcast
11:53 PM 66.9 °F 57.9 °F 73% 29.96 in 10.0 mi North 3.5 mph - N/A   Mostly Cloudy